Volver al catálogo

CZ-6A DEB

ActivoSSO
NORAD 54409·DEBRIS·🇨🇳 China

Lanzado Nov 11, 2022 desde Taiyuan Satellite Launch Center

Loading…

Próximos Pases (próximas 24 horas)

TLE

ActualizadoSource: Space-Track

Época: Sep 14, 2026, 10:35 UTC

1 54409U 22151EH  26257.44149715  .00001744  00000-0  72076-3 0  9991
2 54409  98.7552 258.2352 0134002 299.7995  58.9913 14.23257866198341

Sigue CZ-6A DEB en tiempo real con AllMySat

Download on the App Store